User: anonymous   Login
Location: Unspecified
(0.0000°N, 0.0000°E)
Time: 21:50:33
(UTC+00:00)
Language:

STARLINK-31285 - Orbit

View from above orbital plane
View from above orbital plane
View from above satellite
View from above satellite

Ground track
Ground track

The orbit is defined by the following mean orbital elements,

1 59244U          26145.48100206 +.00000000 +00000-0 +79999-4 0 00003
2 59244  43.0013  69.5728 0001099 255.8138 104.2591 15.27573586    06
Epoch (UTC): 25 May 2026 11:32:38
Eccentricity: 0.0001099
inclination: 43.0013°
perigee height: 482 km
apogee height: 484 km
right ascension of ascending node: 69.5728°
argument of perigee: 255.8138°
revolutions per day: 15.27573586
mean anomaly at epoch: 104.2591°

The dashed part of the orbit path shows where the satellite is in the earth's shadow,  

DLR